Flag for Germany Weather past 2 weeks in Stassfurt, Saxony-Anhalt, Germany

Now
53 °F

Overcast.


Feels Like: 53 °F
Forecast: 40 / 53 °F
Wind: 1 mph from North

Location: Magdeburg

Current Time: Apr 27, 2015 at 2:31:00 AM

Latest Report: Apr 27, 2015 at 2:00 AM


Visibility: 14 mi

Pressure: 29.66 "Hg

Humidity: 85%

Dew point: 49 °F

Location of StassfurtLocation

Historic Weather in Stassfurt — Graph

°F

Stassfurt temperature yesterday

Maximum temperature yesterday: 66 °F (at 2:00 PM)
Minimum temperature yesterday: 47 °F (at 6:00 AM)
Average temperature yesterday: 57 °F

Past Weeks' High & Low Weather Summary

 TemperatureHumidityPressure
High74 °F (Apr 15, 4:00 PM)97% (Apr 26, 6:00 AM)30.43 "Hg (Apr 26, 6:00 AM)
Low32 °F (Apr 18, 7:00 AM)23% (Apr 12, 4:00 PM)29.67 "Hg (Apr 27, 1:00 AM)
Average52 °F62%30.12 "Hg
* Reported Apr 12 1:00 AM — Apr 27 1:00 AM, Stassfurt, Weather by CustomWeather, © 2015

Note: Actual official high and low records may vary slightly from our data, if they occured in-between our weather recording intervals... More about our weather records

Advertising

Stassfurt weather history for previous 24 hours

 ConditionsComfort  
Time TempWeatherWind HumidityBarometerVisibility
1:00 AM
Mon, Apr 27
53 °FOvercast.1 mph89%29.67 "Hg12 mi
12:00 AM53 °FOvercast.1 mph86%29.68 "Hg13 mi
10:00 PM
Sun, Apr 26
57 °FOvercast.1 mph81%29.69 "Hg25 mi
9:00 PM57 °FPassing clouds.1 mph81%29.68 "Hg31 mi
8:00 PM61 °FPartly sunny.2 mph71%29.68 "Hg31 mi
7:00 PM64 °FPartly sunny.2 mph59%29.68 "Hg25 mi
6:00 PM65 °FPartly sunny.3 mph55%29.68 "Hg28 mi
4:00 PM64 °FThunderstorms. Partly sunny.2 mph69%29.70 "Hg12 mi
3:00 PM66 °FPartly sunny.5 mph54%29.70 "Hg25 mi
2:00 PM66 °FPartly sunny.3 mph59%29.72 "Hg19 mi
1:00 PM62 °FPartly sunny.3 mph66%29.73 "Hg19 mi
12:00 PM61 °FOvercast.3 mph71%29.75 "Hg12 mi
10:00 AM58 °FOvercast.5 mph79%29.76 "Hg12 mi
9:00 AM57 °FOvercast.3 mph81%29.77 "Hg9 mi
8:00 AM53 °FPartly sunny.2 mph85%29.78 "Hg5 mi
7:00 AM48 °FScattered clouds.1 mph95%29.78 "Hg5 mi
6:00 AM47 °FPassing clouds.1 mph97%29.77 "Hg5 mi
4:00 AM51 °FClear.2 mph91%29.78 "Hg5 mi
3:00 AM54 °FPassing clouds.2 mph86%29.78 "Hg7 mi
2:00 AM52 °FFog.1 mph93%29.77 "Hg4 mi
Weather by CustomWeather, © 2015

See weather overviewHow to use our weather pages